Zurück zum Katalog

STARLINK-2111

AktivKommunikationVLEO
NORAD 47390·PAYLOAD·🇺🇸 United States

Gestartet Jan 20, 2021 von Cape Canaveral Space Force Station

Loading…

Nächste Überflüge (nächste 24 Stunden)

TLE

AktuellSource: CelesTrak SupGP

Epoche: Sep 15, 2026, 02:48 UTC

1 47390C 21005AT  26258.11715278 -.00016372  00000+0 -52656-3 0  2581
2 47390  53.1578 264.7803 0001235  91.2026 292.3835 15.31704838    18

Verfolge STARLINK-2111 in Echtzeit mit AllMySat

Download on the App Store